Flag for Netherlands Weather past 2 weeks in Nijmegen, Netherlands

Now
43 °F

Scattered clouds.


Feels Like: 36 °F
Forecast: 35 / 50 °F
Wind: 12 mph from Northwest

Location: Volkel

Current Time: Apr 2, 2015 at 10:37:13 AM

Latest Report: Apr 2, 2015 at 9:57 AM


Visibility: N/A

Pressure: 29.92 "Hg

Humidity: 71%

Dew point: 34 °F

Location of NijmegenLocation

Historic Weather in Nijmegen — Graph

°F

Nijmegen temperature yesterday

Maximum temperature yesterday: 48 °F (at 4:55 PM)
Minimum temperature yesterday: 37 °F (at 7:04 AM)
Average temperature yesterday: 44 °F

Past Weeks' High & Low Weather Summary

 TemperatureHumidityPressure
High57 °F (Mar 18, 1:25 PM)100% (Mar 19, 8:55 AM)30.39 "Hg (Mar 19, 8:55 AM)
Low27 °F (Mar 24, 4:55 AM)43% (Mar 30, 6:25 PM)29.24 "Hg (Mar 29, 5:55 PM)
Average43 °F83%29.93 "Hg
* Reported Mar 18 8:25 AM — Apr 2 9:25 AM, Nijmegen, Weather by CustomWeather, © 2015

Note: Actual official high and low records may vary slightly from our data, if they occured in-between our weather recording intervals... More about our weather records

Advertising

Nijmegen weather history for previous 24 hours

 ConditionsComfort  
Time TempWeatherWind HumidityBarometerVisibility
9:25 AM
Thu, Apr 2
41 °FMostly cloudy.10 mph81%29.89 "HgN/A
8:59 AM41 °FPartly sunny.10 mph87%29.89 "HgN/A
8:25 AM41 °FMore clouds than sun.9 mph87%29.86 "HgN/A
7:55 AM41 °FRain showers. Overcast.12 mph87%29.83 "Hg4 mi
7:25 AM41 °FPartly cloudy.8 mph93%29.83 "HgN/A
7:04 AM41 °FLight rain. Partly cloudy.9 mph93%29.83 "HgN/A
6:55 AM41 °FSprinkles. Mostly cloudy.10 mph93%29.83 "HgN/A
6:25 AM43 °FLight rain. Overcast.14 mph93%29.80 "HgN/A
5:55 AM43 °FSprinkles. Mostly cloudy.12 mph93%29.80 "HgN/A
5:25 AM43 °FLight rain. Mostly cloudy.13 mph93%29.83 "HgN/A
5:01 AM43 °FPartly cloudy.12 mph93%29.83 "HgN/A
4:55 AM43 °FLight rain. Partly cloudy.13 mph93%29.83 "HgN/A
4:25 AM43 °FPartly cloudy.14 mph93%29.86 "Hg6 mi
3:59 AM43 °FPartly cloudy.12 mph93%29.86 "Hg6 mi
3:25 AM43 °FLight rain. Overcast.16 mph93%29.89 "HgN/A
3:00 AM43 °FLight rain. Passing clouds.14 mph93%29.92 "Hg6 mi
2:55 AM43 °FPartly cloudy.15 mph93%29.92 "Hg5 mi
2:25 AM43 °FPartly cloudy.15 mph93%29.92 "Hg5 mi
1:55 AM43 °FPartly cloudy.15 mph93%29.95 "Hg5 mi
1:25 AM43 °FLight rain. Partly cloudy.15 mph87%29.98 "Hg5 mi
12:58 AM43 °FPartly cloudy.16 mph87%29.98 "HgN/A
12:55 AM43 °FPassing clouds.17 mph87%29.98 "HgN/A
12:25 AM45 °FDrizzle. Mostly cloudy.14 mph76%29.98 "HgN/A
11:55 PM
Wed, Apr 1
45 °FLight rain. Mostly cloudy.16 mph71%30.01 "HgN/A
11:25 PM46 °FPartly cloudy.20 mph62%30.01 "HgN/A
10:55 PM46 °FPartly cloudy.18 mph66%30.01 "HgN/A
10:25 PM46 °FPartly cloudy.18 mph66%30.01 "HgN/A
9:55 PM46 °FPassing clouds.16 mph62%30.01 "HgN/A
9:25 PM46 °FMostly cloudy.15 mph62%30.04 "HgN/A
8:55 PM46 °FBroken clouds.15 mph62%30.04 "HgN/A
8:25 PM46 °FBroken clouds.14 mph62%30.07 "HgN/A
7:55 PM46 °FBroken clouds.13 mph62%30.07 "HgN/A
7:25 PM46 °FOvercast.15 mph57%30.07 "HgN/A
6:55 PM46 °FMostly cloudy.17 mph57%30.07 "HgN/A
6:25 PM48 °FBroken clouds.15 mph54%30.07 "HgN/A
5:55 PM48 °FScattered clouds.15 mph54%30.07 "HgN/A
5:25 PM48 °FBroken clouds.18 mph54%30.07 "HgN/A
4:55 PM48 °FScattered clouds.20 mph50%30.07 "HgN/A
4:25 PM46 °FScattered clouds.17 mph53%30.07 "HgN/A
3:55 PM46 °FBroken clouds.18 mph53%30.07 "HgN/A
3:25 PM46 °FBroken clouds.18 mph57%30.07 "HgN/A
2:55 PM46 °FBroken clouds.22 mph57%30.07 "HgN/A
2:25 PM46 °FScattered clouds.17 mph62%30.07 "HgN/A
1:55 PM45 °FPassing clouds.16 mph76%30.07 "HgN/A
1:25 PM46 °FBroken clouds.17 mph66%30.07 "HgN/A
12:55 PM43 °FLight rain. Broken clouds.20 mph76%30.07 "HgN/A
12:25 PM45 °FBroken clouds.12 mph76%30.04 "HgN/A
12:02 PM41 °FLight rain. Broken clouds.9 mph87%30.04 "HgN/A
11:55 AM41 °FPartly sunny.12 mph87%30.04 "HgN/A
11:25 AM39 °FRain showers. Broken clouds.17 mph87%30.04 "Hg2 mi
11:03 AM43 °FBroken clouds.15 mph76%30.04 "HgN/A
10:59 AM45 °FBroken clouds.14 mph76%30.04 "HgN/A
10:25 AM43 °FBroken clouds.14 mph81%30.04 "HgN/A
Weather by CustomWeather, © 2015

See weather overviewHow to use our weather pages